{"data":{"norad_id":59738,"epoch":"2026-09-21T09:58:00.609312Z","epoch_age_seconds":92272,"freshness":"FRESH","line1":"1 59738U 24090J   26264.41528483 -.00000310  00000+0 -17617-5 0  9994","line2":"2 59738  43.0022 158.1556 0000813 271.9435  88.1324 15.27574487133372","mean_motion":15.27574487,"eccentricity":8.13e-5,"inclination_deg":43.0022,"raan_deg":158.1556,"arg_perigee_deg":271.9435,"mean_anomaly_deg":88.1324,"bstar":-1.7617e-6,"rev_number":13337,"period_min":94.26708892134,"perigee_km":482.50778822289,"apogee_km":483.6234197663,"semimajor_km":6861.2026039946,"source":"CELESTRAK","updated_at":"2026-09-22T09:00:49.063178Z"}}